Regional Weather Roundup
Issued by NWS

Home | Current Version | Previous Version | Text Only | Print | Product List | Glossary On
Versions: 1 2 3 4 5 6 7 8 9 10 11 12 13 14 15 16 17 18 19 20 21 22 23 24 25 26 27 28 29 30 31 32 33 34 35 36 37 38 39 40 41 42 43 44 45 46 47 48 49 50
000
ASUS43 KDTX 050710
RWRMI
MICHIGAN HOURLY REGIONAL WEATHER ROUNDUP
NATIONAL WEATHER SERVICE DETROIT/PONTIAC MI
300 AM EDT TUE MAY 05 2015

NOTE: "FAIR" INDICATES FEW OR NO CLOUDS BELOW 12,000 FEET WITH NO
SIGNIFICANT WEATHER AND/OR OBSTRUCTION TO VISIBILITY.

MIZ047>049-052>055-059>063-066>070-074>076-081>083-050800-
SOUTHEAST LOWER MICHIGAN

CITY           SKY/WX    TMP DP  RH WIND       PRES   REMARKS
ADRIAN         CLEAR     56  53  90 CALM      30.20R
ALMA           PTCLDY    52  40  63 N5        30.25R
ANN ARBOR      CLEAR     59  44  57 NE10      30.20S
BAD AXE        MOCLDY    46  36  67 NE6       30.27R
CARO           MOCLDY    48  42  81 CALM      30.25R
DETROIT CITY   PTCLDY    59  38  45 NE8       30.21R
DETROIT        CLOUDY    61  39  44 NE9G17    30.21R
FLINT          PTCLDY    57  39  51 NE7       30.23S
GROSSE ILE     PTCLDY    57  48  72 NE12      30.19R
HILLSDALE      PTCLDY    55  55  99 CALM      30.19F
HOWELL         PTCLDY    57  46  67 E6        30.21R

CITY           SKY/WX    TMP DP  RH WIND       PRES   REMARKS
JACKSON        CLEAR     54  49  83 CALM      30.20S
LAMBERTVILLE   PTCLDY    61  55  82 CALM      30.19S FOG
LANSING        CLEAR     55  44  66 NE7       30.22S
LAPEER         CLOUDY    54  35  49 E6        30.25R
MASON          CLEAR     55  42  62 NE3       30.21R
MONROE         PTCLDY    59  57  94 NE8       30.18R
PONTIAC        CLEAR     55  38  52 NE6       30.22S
PORT HOPE        N/A     44  36  73 NW5       30.25R
PORT HURON     MOCLDY    50  41  71 N7        30.24S
TRI CITIES     CLEAR     52  44  74 N3        30.25R
MIDLAND        MOCLDY    44  39  81 CALM      30.25R
TROY           CLEAR     58  38  48 NE8       30.24S
SAGINAW HB     MOCLDY    50  41  71 NE3       30.24S
$$
MIZ043>046-050>051-056>058-064>065-071>073-077>080-050800-
SOUTHWEST LOWER MICHIGAN

CITY           SKY/WX    TMP DP  RH WIND       PRES   REMARKS
BATTLE CREEK   PTCLDY    57  41  55 NE3       30.20F
BENTON HARBOR  MOCLDY    49  48  97 NE5       30.16F
BIG RAPIDS     PTCLDY    48  36  63 CALM      30.24S
COLDWATER      MOCLDY    54  53  97 CALM      30.19S
FREMONT        FAIR      52  33  48 E7        30.22F
HOLLAND        MOCLDY    56  40  55 NE3       30.21S
GRAND RAPIDS   PTCLDY    55  37  50 NE9       30.21S
IONIA          FAIR      55  40  57 NE9       30.22S
KALAMAZOO      MOCLDY    59  42  53 NE3       30.20S
LUDINGTON      CLOUDY    44  37  75 CALM      30.24R
MARSHALL       PTCLDY    56  44  64 CALM      30.20S
MOUNT PLEASANT CLOUDY    49  44  80 CALM      30.25R
MUSKEGON       MOCLDY    54  34  46 E7        30.22S
SOUTH HAVEN    MOCLDY    54  47  76 E3        30.18F
$$
MIZ016>042-050800-
NORTHERN LOWER MICHIGAN

CITY           SKY/WX    TMP DP  RH WIND       PRES   REMARKS
ALPENA         PTCLDY    45  35  68 NW7       30.27R
BEAVER ISLAND  CLEAR     34  33  97 CALM      30.29S
BELLAIRE       PTCLDY    35  33  94 CALM      30.28R
CADILLAC       MOCLDY    44  33  63 CALM      30.24S
CHARLEVOIX     PTCLDY    39  35  84 CALM      30.31S
FRANKFORT      CLOUDY    50  32  50 E3        30.25F
GAYLORD        PTCLDY    44  35  70 N5        30.27S
GRAYLING       PTCLDY    32  29  90 CALM      30.27S
HARBOR SPRINGS PTCLDY    37  33  86 CALM      30.29S
HOUGHTON LAKE  PTCLDY    39  31  72 S6        30.26R WCI  35
MANISTEE       CLOUDY    46  34  61 E5        30.25S
OSCODA         PTCLDY    43  35  74 CALM      30.25R
PELLSTON       PTCLDY    32  30  92 CALM      30.29S
ROGERS CITY    PTCLDY    43  37  78 W5        30.29R
TRAVERSE CITY  MOCLDY    38  34  85 CALM      30.26S
$$
MIZ007>008-015-050800-
EASTERN UPPER MICHIGAN

CITY           SKY/WX    TMP DP  RH WIND       PRES   REMARKS
KINROSS        CLEAR     36  36 100 W5        30.28R WCI  32
MACKINAC ISLAN CLEAR     40  35  81 N5        30.28S
NEWBERRY       CLEAR     38  36  94 N6        30.27S WCI  33
S. S. MARIE    CLEAR     40  34  79 SW3       30.27R
MUNISING         N/A     37  32  82 S7        30.27S WCI  32
$$
MIZ004>006-011>014-085-050800-
CENTRAL UPPER MICHIGAN

CITY           SKY/WX    TMP DP  RH WIND       PRES   REMARKS
MANISTIQUE     CLEAR     37  35  92 CALM      30.29S
ESCANABA       PTCLDY    36  32  87 CALM      30.29R
MENOMINEE      MOCLDY    45  36  70 NE6       30.27S
SAWYER-GWINN   CLEAR     36  31  83 NW3       30.28S
$$
MIZ001>003-009>011-084-050800-
WESTERN UPPER MICHIGAN

CITY           SKY/WX    TMP DP  RH WIND       PRES   REMARKS
IRON MOUNTAIN  PTCLDY    39  34  82 CALM      30.28R
HOUGHTON       CLEAR     42  35  76 SW7       30.27R
COPPER HARBOR    N/A     46  32  58 SW7       30.25R
IRONWOOD       CLEAR     34  30  86 CALM      30.25R
$$

ABBREVIATIONS USED IN REMARKS
   TC - TEMPERATURE IN CELSIUS
  WCI - WIND CHILL INDEX
   HX - HEAT INDEX
  VSB - VISIBILITY



USA.gov is the U.S. government's official web portal to all federal, state and local government web resources and services.